Regional Weather Roundup
Issued by NWS

Home | Current Version | Previous Version | Text Only | Print | Product List | Glossary Off
Versions: 1 2 3 4 5 6 7 8 9 10 11 12 13 14 15 16 17 18 19 20 21 22 23 24 25 26 27 28 29 30 31 32 33 34 35 36 37 38 39 40 41 42 43 44 45 46 47 48 49 50

000
ASUS43 KFSD 031002
RWRSD

WEATHER ROUNDUP FOR SOUTH DAKOTA
NATIONAL WEATHER SERVICE SIOUX FALLS SD
500 AM CDT WED JUN 03 2015

NOTE: "FAIR" INDICATES FEW OR NO CLOUDS BELOW 12,000 FEET WITH NO
SIGNIFICANT WEATHER AND/OR OBSTRUCTIONS TO VISIBILITY.


SDZ001>005-009-010-012>017-031100-
NORTHWEST AND NORTH CENTRAL SOUTH DAKOTA

CITY           SKY/WX    TMP DP  RH WIND       PRES   REMARKS
BUFFALO          N/A     53  49  86 NW14      29.89R
FAITH            N/A     53  50  89 NW14      29.89R
MOBRIDGE       CLOUDY    59  57  93 NW14      29.79R
$$

SDZ012>016-024>037-041>051-057-063-072>074-031100-
SOUTHWEST AND SOUTH CENTRAL SOUTH DAKOTA

CITY           SKY/WX    TMP DP  RH WIND       PRES   REMARKS
RAPID CTY ARPT CLEAR     55  50  83 N21       29.92R
PIERRE         CLOUDY    62  58  86 N13       29.78S
CUSTER         PTCLDY    50  32  50 NW3       30.02S
PHILIP         PTCLDY    58  55  90 NW12      29.87R
PINE RIDGE     MOCLDY    53  50  89 W5        29.93S
WINNER         FAIR      63  53  70 NE9       29.80F
$$

SDZ004>011-016>023-039-040-031100-
NORTHEAST SOUTH DAKOTA

CITY           SKY/WX    TMP DP  RH WIND       PRES   REMARKS
ABERDEEN       CLOUDY    67  63  87 W8        29.77R
WATERTOWN      CLOUDY    65  61  87 S6        29.78R
BROOKINGS      CLOUDY    64  59  82 S10       29.80F
SISSETON         N/A     69  64  84 W10       29.73R
$$

SDZ017-020-022-023-036>040-048>070-031100-
SOUTHEAST SOUTH DAKOTA

CITY           SKY/WX    TMP DP  RH WIND       PRES   REMARKS
SIOUX FALLS    CLOUDY    64  60  87 S8        29.80F
HURON          RAIN      67  62  84 W10       29.80R
CHAMBERLAIN    CLOUDY    64  59  83 N12       29.78F
MITCHELL       LGT RAIN  65  63  93 N9        29.78F
YANKTON        CLOUDY    64  61  88 CALM      29.73F
$$

ABBREVIATIONS USED IN REMARKS
   TC - TEMPERATURE IN CELSIUS
  WCI - WIND CHILL INDEX
   HX - HEAT INDEX
  VSB - VISIBILITY



USA.gov is the U.S. government's official web portal to all federal, state and local government web resources and services.